Accueil
METAR-TAF:

METAR-TAF

Aéroports :

Hooper Bay, Alaska, États-Unis

latitude: 61-31N, longitude: 166-08W, altitude: 5 m

Observation

Le bulletin a été fait il y a 29 minutes, à 23:56 UTC
Vent 9 kt de nord-ouest
Température -10°C
Humidité 92%
Pression 1011 hPa
Visibilité: 16.1 km
Nuages fragmentés à une hauteur de 6000 ft

METAR: PAHP 222356Z AUTO 31009KT 10SM BKN060 M10/M11 A2985 RMK AO2 SLP109 60000 T11001111 11100 21133 50049 FZRANO

Heure: 15:25 (00:25 UTC)


TAF: absent

Observations et prévisions météorologiques de plus de 4000 aéroports (messages METAR et TAF).

Les stations disponibles sont représentées par des disques jaunes et rouges sur la carte.

Passer la souris dessus pour voir le nom de la station.

Cliquer dessus pour voir les observations et prévisions météorologiques.

Pour changer de carte: cliquez sur les boutons verts avec une croix noire pour zoomer, sur le bouton vert avec un tiret pour effectuer un zoom arrière, ou sur les flèches vertes pour les cartes adjacentes.


METAR-TAF: